Location: Arrington
(35.8681°N, 86.7092°W)
Time: 20:43:10
(UTC+00:00)

GPS 2-05 Rocket1 - Pass Details

Date: 23 November 2019
Orbit: 295 x 323 km, 35.6° (Epoch: 08 December)

Event Time Altitude Azimuth Distance (km) Brightness Sun altitude
Exits shadow 11:08:58 45° 205° (SSW) 412 2.6 -16.5°
Maximum altitude 11:09:23 52° 167° (SSE) 372 2.6 -16.4°
Drops below altitude 10° 11:11:54 10° 89° (E) 1,148 6.2 -15.9°
Sets 11:13:53 0° 84° (E) 1,973 7.6 -15.5°
